1287360025407,34.8060
1287360085407,34.7997
1287360145407,34.7193
1287360205407,34.7246
1287360265407,34.7851
1287360325407,34.7047
1287360385407,34.7744
1287360445407,34.7794
1287360505407,34.7918
1287360565407,34.7598
1287360625407,34.8544
1287360685407,34.7276
1287360745407,34.7235
1287360805407,34.8049
1287360865407,34.8665
1287360925407,34.8321
1287360985407,34.7473
1287361045407,34.7186
1287361105407,34.7612
1287361165407,34.7414
1287361225407,34.7262
1287361285407,34.7770
1287361345407,34.7285
1287361405407,34.8058
1287361465407,34.7339
1287361525407,34.8025
1287361585407,34.7211
1287361645407,34.9057
1287361705407,34.7701
1287361765407,34.7589
1287361825407,34.8368
1287361885407,34.8481
1287361945407,34.7642
1287362005407,34.6611
1287362065407,34.7100
1287362125407,34.8520
1287362185407,34.6983
1287362245407,34.8016
1287362305407,34.7717
1287362365407,34.6120
1287362425407,34.6962
1287362485407,34.6219
1287362545407,34.7104
1287362605407,34.7105
1287362665407,34.7215
1287362725407,34.6630
1287362785407,34.5734
1287362845407,34.6684
1287362905407,34.6887
1287362965407,34.7246
1287363025407,34.6925
1287363085407,34.6635
1287363145407,34.6852
1287363205407,34.7475
1287363265407,34.6949
1287363325407,34.7548
1287363385407,34.6377
1287363445407,34.7204
1287363505407,34.6857
1287363565407,34.7097
1287363625418,34.6822
1287363685418,35.0731
1287363745418,34.7252
1287363805418,34.7563
1287363865418,34.6828
1287363925418,34.6525
1287363985418,34.6939
1287364045418,34.7234
1287364105418,34.6652
1287364165418,34.6731
1287364225418,34.5963
1287364285418,34.5649
1287364885418,34.7206
1287364945418,34.7034
1287365005418,34.7599
1287365065418,34.7361
1287365125418,34.7200
1287365185418,34.7859
1287365245418,34.7954
1287365305418,34.7878
1287365365418,34.7712
1287365425418,34.7996
1287365485418,34.6984
1287365545418,34.7438
1287365605418,34.7520
1287365665418,34.8330
1287365725418,34.8023
1287365785418,34.8666
1287365845418,34.7810
1287365905418,34.7873
1287365965418,34.6666
1287366025418,34.7677
1287366085418,34.8117
1287366145418,34.7905
1287366205418,34.8616
1287366265418,34.7685
1287366325418,34.8481
1287366385418,34.8798
1287366445418,34.6982
1287366505418,34.7664
1287366565418,34.8730
1287366625418,34.8174
1287366685418,34.8062
1287366745418,34.7865
1287366805418,34.8361
1287366865418,34.8533
1287366925418,34.8717
1287366985418,35.0165
1287367045418,34.8314
1287367105418,34.7649
1287367165418,34.9241
1287367225429,34.8802
1287367285429,34.8082
1287367345429,34.8891
1287367405429,34.8747
1287367465429,34.8093
1287367525429,34.7786
1287367585429,34.8196
1287367645429,34.9131
1287367705429,34.7659
1287367765429,34.7817
1287367825429,34.7776
1287367885429,34.8664
1287367945429,34.8711
1287368005429,34.8484
1287368065429,34.8169
1287368125429,34.8824
1287368185429,34.8048
1287368245429,34.9283
1287368305429,34.8728
1287368365429,34.8386
1287368425429,34.8848
1287368485429,34.9569
1287368545429,34.7983
1287368605429,35.0107
1287368665429,34.9145
1287368725429,34.8262
1287368785429,34.9020
1287368845429,34.8440
1287368905429,34.9107
1287368965429,35.0069
1287369025429,34.9045
1287369085429,34.9219
1287369145429,34.8469
1287369205429,34.8547
1287369265429,34.8801
1287369325429,34.9370
1287369385429,34.9247
1287369445429,34.8731
1287369505429,34.9583
1287369565429,35.0412
1287369625429,34.8872
1287369685429,34.9986
1287369745429,34.9674
1287369805429,34.9177
1287369865429,34.9475
1287369925429,35.0842
1287369985429,35.0860
1287370045429,34.9685
1287370105429,34.8986
1287370165429,34.9008
1287370225429,34.9952
1287370285429,35.0187
1287370345429,34.8831
1287370405429,34.9544
1287370465429,34.9552
1287370525429,34.9444
1287370585429,34.9898
1287370645429,34.8778
1287370705429,34.9663
1287370765429,34.9504
1287370825439,34.9125
1287370885439,34.9384
1287370945439,34.8489
1287371005439,34.9284
1287371065439,34.9898
1287371125439,34.8417
1287371185439,34.9186
1287371245439,34.8977
1287371305439,34.8602
1287371365439,34.9355
1287371425439,34.8282
1287371485439,34.8892
1287371545439,34.9582
1287371605439,34.8931
1287371665439,34.9005
1287371725439,34.8617
1287371785439,34.8787
1287371845439,35.0140
1287371905439,34.9392
1287371965439,34.7763
1287372025439,34.9539
1287372085439,34.9174
1287372145439,34.9305
1287372205439,34.8800
1287372265439,34.9534
1287372325439,34.9864
1287372385439,35.0085
1287372445439,34.9027
1287372505439,34.8236
1287372565439,35.0620
1287372625439,34.9800
1287372685439,34.9861
1287372745439,34.9337
1287372805439,34.8867
1287372865439,34.9165
1287372925439,35.0228
1287372985439,34.9154
1287373045439,34.9683
1287373105439,34.9220
1287373165439,35.0280
1287373225439,34.9242
1287373285439,35.0575
1287373345439,34.9478
1287373405439,34.9346
1287373465439,34.8357
1287373525439,35.0122
1287373585439,34.9851
1287373645439,34.9569
1287373705439,35.0219
1287373765439,34.8301
1287373825439,34.9976
1287373885439,34.9469
1287373945439,35.0588
1287374005439,34.9065
1287374065439,34.9410
1287374125439,34.9690
1287374185439,34.9537
1287374245439,35.0291
1287374305439,34.9810
1287374365439,34.9648
1287374425450,34.9403
1287374485450,35.0365
1287374545450,34.9400
1287374605450,35.0021
1287374665450,34.9618
1287374725450,34.9306
1287374785450,34.9294
1287374845450,35.0005
1287374905450,35.0095
1287374965450,34.9338
1287375025450,34.9102
1287375085450,34.9556
1287375145450,34.9574
1287375205450,34.9371
1287375265450,34.8961
1287375325450,34.8885
1287375385450,34.8357
1287375445450,34.9087
1287375505450,34.9835
1287375565450,34.8546
1287375625450,34.9329
1287375685450,35.0408
1287375745450,34.8915
1287375805450,34.9862
1287375865450,34.9951
1287375925450,34.9686
1287375985450,35.0064
1287376045450,34.9109
1287376105450,35.0674
1287376165450,34.9704
1287376225450,35.1266
1287376285450,35.0741
1287376345450,34.9940
1287376405450,35.0485
1287376465450,35.0277
1287376525450,35.1557
1287376585450,35.1253
1287376645450,35.1102
1287376705450,35.0569
1287376765450,35.0106
1287376825450,34.9631
1287376885450,35.0965
1287376945450,35.0708
1287377005450,35.1287
1287377065450,35.0553
1287377125450,35.0244
1287377185450,35.0264
1287377245450,34.9521
1287377305450,35.0724
1287377365450,35.1033
1287377425450,35.2040
1287377485450,35.1252
1287377545450,35.1156
1287377605450,35.1522
1287377665450,35.2003
1287377725450,35.0785
1287377785450,35.1518
1287377845450,35.1152
1287377905450,35.0517
1287377965450,34.9998
1287378025460,35.1600
1287378085460,35.0328
1287378145460,35.0811
1287378205460,35.0604
1287378265460,35.0911
1287378325460,35.0009
1287378385461,35.1550
1287378445461,35.0983
1287378505461,35.0914
1287378565460,35.0813
1287378625460,35.2114
1287378685460,34.9630
1287378745460,35.1349
1287378805460,35.0601
1287378865460,35.1282
1287378925460,35.1542
1287378985460,35.1150
1287379045460,35.2139
1287379105460,35.0937
1287379165460,34.9720
1287379225460,35.0645
1287379285460,35.0307
1287379345460,35.1488
1287379405460,35.1924
1287379465460,35.1512
1287379525460,35.0722
1287379585460,35.0847
1287379645460,35.1131
1287379705460,35.1151
1287379765461,35.1409
1287379825461,35.1722
1287379885460,35.0911
1287379945460,35.0939
1287380005460,35.0613
1287380065460,35.1480
1287380125460,35.1240
1287380185460,35.1482
1287380245460,35.1695
1287380305460,35.1858
1287380365460,35.2831
1287380425460,35.1559
1287380485460,35.2430
1287380545460,35.2282
1287380605460,35.2098
1287380665460,35.2870
1287380725460,35.2913
1287380785460,35.1884
1287380845460,35.1608
1287380905460,35.1796
1287380965460,35.1724
1287381025460,35.1799
1287381085461,35.2685
1287381145461,35.2305
1287381205461,35.1995
1287381265460,35.1951
1287381325460,35.1578
1287381385460,35.2646
1287381445460,35.3584
1287381505460,35.2304
1287381565460,35.1619
1287381625471,35.2745
1287381685471,35.2650
1287381745471,35.1726
1287381805471,35.3800
1287381865471,35.3771
1287381925471,35.3026
1287381985471,35.2840
1287382045471,35.2662
1287382105471,35.2441
1287382165471,35.1496
1287382225471,35.2862
1287382285471,35.2261
1287382345471,35.3933
1287382405471,35.3663
1287382465471,35.4001
1287382525471,35.4428
1287382585471,35.3699
1287382645471,35.3931
1287382705471,35.3842
1287382765471,35.5346
1287382825471,35.4568
1287382885471,35.4582
1287382945471,35.4506
1287383005471,35.4589
1287383065471,35.4099
1287383125471,35.5645
1287383185471,35.5197
1287383245471,35.5618
1287383305471,35.6428
1287383365471,35.4157
1287383425471,35.4579
1287383485471,35.4248
1287383545471,35.5509
1287383605471,35.4815
1287383665471,35.4302
1287383725471,35.5758
1287383785471,35.4933
1287383845471,35.4489
1287383905471,35.3706
1287383965471,35.4386
1287384025471,35.4815
1287384085471,35.3705
1287384145471,35.4245
1287384205471,35.4980
1287384265471,35.4468
1287384325471,35.4796
1287384385471,35.4165
1287384445471,35.3760
1287384505471,35.5038
1287384565471,35.5110
1287384625471,35.4473
1287384685471,35.4726
1287384745471,35.5021
1287384805471,35.4737
1287384865471,35.3962
1287384925471,35.5415
1287384985471,35.4307
1287385045471,35.3458
1287385105471,35.3845
1287385165471,35.3704
1287385225482,35.3543
1287385285482,35.4170
1287385345482,35.4037
1287385405482,35.5118
1287385465482,35.4068
1287385525482,35.4610
1287385585482,35.3917
1287385645482,35.3926
1287385705482,35.3965
1287385765482,35.3813
1287385825482,35.3528
1287385885482,35.4181
1287385945482,35.4384
1287386005482,35.5082
1287386065482,35.4834
1287386125482,35.5312
1287386185482,35.4141
1287386245482,35.4400
1287386305482,35.3428
1287386365482,35.4647
1287386425482,35.4273
1287386485482,35.4102
1287386545482,35.4279
1287386605482,35.3240
1287386665482,35.3775
1287386725482,35.4358
1287386785482,35.4401
1287386845482,35.3491
1287386905482,35.3960
1287386965482,35.4104
1287387025482,35.4123
1287387085482,35.2824
1287387145482,35.4541
1287387205482,35.3567
1287387265482,35.3536
1287387325482,35.5361
1287387385482,35.4566
1287387445482,35.4526
1287387505482,35.6107
1287387565482,35.4292
1287387625482,35.3920
1287387685482,35.4699
1287387745482,35.3838
1287387805482,35.4069
1287387865482,35.5682
1287387925482,35.3347
1287387985482,35.4355
1287388045482,35.4963
1287388105482,35.4133
1287388165482,35.4082
1287388225482,35.3702
1287388285482,35.4987
1287388345482,35.4301
1287388405482,35.4864
1287388465482,35.3823
1287388525482,35.3999
1287388585482,35.3483
1287388645482,35.4185
1287388705482,35.5096
1287388765482,35.5230
1287388825493,35.3923
1287388885493,35.4229
1287388945493,35.4888
1287389005493,35.4485
1287389065493,35.4703
1287389125493,35.4928
1287389185493,35.4242
1287389245493,35.4540
1287389305493,35.4659
1287389365493,35.4958
1287389425493,35.4201
1287389485493,35.4119
1287389545493,35.4029
1287389605493,35.4126
1287389665493,35.4723
1287389725493,35.4205
1287389785493,35.4556
1287389845493,35.4410
1287389905493,35.3220
1287389965493,35.2515
1287390025493,35.4186
1287390085493,35.4597
1287390145493,35.3851
1287390205493,35.5205
1287390265493,35.3503
1287390325493,35.4572
1287390385493,35.4230
1287390445493,35.3257
1287390505493,35.3613
1287390565493,35.4229
1287390625493,35.4079
1287390685493,35.3872
1287390745493,35.3548
1287390805493,35.4079
1287390865493,35.2622
1287390925493,35.3315
1287390985493,35.3157
1287391045493,35.3615
1287391105493,35.3507
1287391165493,35.4862
1287391225493,35.4513
1287391285493,35.3192
1287391345493,35.4044
1287391405493,35.4580
1287391465493,35.3431
1287391525493,35.4454
1287391585493,35.3783
1287391645493,35.4635
1287391705493,35.3742
1287391765493,35.4168
1287391825493,35.3225
1287391885493,35.3486
1287391945493,35.4527
1287392005493,35.3823
1287392065493,35.3463
1287392125493,35.5162
1287392185493,35.3979
1287392245493,35.4034
1287392305493,35.5286
1287392365493,35.4300
1287392425504,35.2749
1287392485504,35.4078
1287392545504,35.4082
1287392605504,35.4103
1287392665504,35.5564
1287392725504,35.4215
1287392785504,35.5128
1287392845504,35.4545
1287392905504,35.3320
1287392965504,35.3655
1287393025504,35.3826
1287393085504,35.3119
1287393145504,35.4770
1287393205504,35.3062
1287393265504,35.4411
1287393325504,35.4138
1287393385504,35.4270
1287393445504,35.3861
1287393505504,35.4254
1287393565504,35.4783
1287393625504,35.3728
1287393685504,35.3273
1287393745504,35.2882
1287393805504,35.3984
1287393865504,35.4660
1287393925504,35.5140
1287393985504,35.3525
1287394045504,35.4134
1287394105504,35.4459
1287394165504,35.3554
1287394225504,35.3820
1287394285504,35.3198
1287394345504,35.2588
1287394405504,35.3847
1287394465504,35.2866
1287394525504,35.2911
1287394585504,35.2871
1287394645504,35.4058
1287394705504,35.4237
1287394765504,35.3224
1287394825504,35.3512
1287394885504,35.3296
1287394945504,35.3593
1287395005504,35.3489
1287395065504,35.4303
1287395125504,35.3331
1287395185504,35.3698
1287395245504,35.4363
1287395305504,35.3282
1287395365504,35.4054
1287395425504,35.3769
1287395485504,35.3471
1287395545504,35.2851
1287395605504,35.2893
1287395665504,35.2979
1287395725504,35.3713
1287395785504,35.2868
1287395845504,35.3107
1287395905504,35.3516
1287395965504,35.4330
1287396025515,35.3863
1287396085515,35.3646
1287396145515,35.3176
1287396205515,35.3344
1287396265515,35.4214
1287396325515,35.4223
1287396385515,35.3622
1287396445515,35.2899
1287396505515,35.4876
1287396565515,35.4395
1287396625515,35.3942
1287396685515,35.2796
1287396745515,35.2863
1287396805515,35.3495
1287396865515,35.4122
1287396925515,35.3540
1287396985515,35.3217
1287397045515,35.3284
1287397105515,35.2637
1287397165515,35.4801
1287397225515,35.4416
1287397285515,35.2766
1287397345515,35.2904
1287397405515,35.4676
1287397465515,35.2807
1287397525515,35.3704
1287397585515,35.3608
1287397645515,35.3708
1287397705515,35.4958
1287397765515,35.3104
1287397825515,35.3328
1287397885515,35.3551
1287397945515,35.3214
1287398005515,35.4201
1287398065515,35.3840
1287398125515,35.4117
1287398185515,35.3658
1287398245515,35.4390
1287398305515,35.3506
1287398365515,35.4287
1287398425515,35.4388
1287398485515,35.3682
1287398545515,35.4041
1287398605515,35.3080
1287398665515,35.3669
1287398725515,35.3746
1287398785515,35.3216
1287398845515,35.4799
1287398905515,35.4711
1287398965515,35.3646
1287399025515,35.2861
1287399085515,35.3266
1287399145515,35.3769
1287399205515,35.3842
1287399265515,35.3791
1287399325515,35.3885
1287399385515,35.4191
1287399445515,35.4230
1287399505515,35.2572
1287399565515,35.3726
1287399625526,35.3860
1287399685526,35.4626
1287399745526,35.4251
1287399805526,35.3387
1287399865526,35.5954
1287399925526,35.4946
1287399985526,35.4677
1287400045526,35.4384
1287400105526,35.4709
1287400165526,35.4468
1287400225526,35.5354
1287400285526,35.4309
1287400345526,35.5635
1287400405526,35.5138
1287400465526,35.5174
1287400525526,35.5020
1287400585526,35.6315
1287400645526,35.5726
1287400705526,35.4818
1287400765526,35.8101
1287400825526,35.4566
1287400885526,35.8867
1287400945526,35.4567
1287401005526,35.5001
1287401065526,35.4901
1287401125526,35.4769
1287401185526,35.5415
1287401245526,35.4668
1287401305526,35.5554
1287401365526,35.5119
1287401425526,35.5019
1287401485526,35.5670
1287401545526,35.4859
1287401605526,35.5432
1287401665526,35.6325
1287401725526,35.6279
1287401785526,35.6106
1287401845526,35.5980
1287401905526,35.5718
1287401965526,35.5097
1287402025526,35.6073
1287402085526,35.4857
1287402145526,35.6205
1287402205526,35.5693
1287402265526,35.5384
1287402325526,35.6197
1287402385526,35.5049
1287402445526,35.5776
1287402505526,35.5231
1287402565526,35.6488
1287402625526,35.6620
1287402685526,35.6662
1287402745526,35.5803
1287402805526,35.6202
1287402865526,35.7115
1287402925526,35.7354
1287402985526,35.7345
1287403045526,35.8564
1287403105526,35.7141
1287403165526,35.7811
1287403225537,35.6917
1287403285537,35.6517
1287403345537,35.6756
1287403405537,35.7604
1287403465537,35.7278
1287403525537,35.7217
1287403585537,35.6763
1287403645537,35.8154
1287403705537,35.7793
1287403765537,35.9128
1287403825537,35.8009
1287403885537,35.8662
1287403945537,35.9800
1287404005537,36.0471
1287404065537,35.9332
1287404125537,35.9517
1287404185537,35.9685
1287404245537,35.8433
1287404305537,35.7573
1287404365537,35.6499
1287404425537,35.7234
1287404485537,35.6929
1287404545537,35.7091
1287404605537,35.6459
1287404665537,35.7293
1287404725537,35.6336
1287404785537,35.6258
1287404845537,35.6526
1287404905537,35.6417
1287404965537,35.6282
1287405025537,35.6300
1287405085537,35.6303
1287405145537,35.7003
1287405205537,35.5461
1287405265537,35.5266
1287405325537,35.5720
1287405385537,35.5540
1287405445537,35.6138
1287405505537,35.5441
1287405565537,35.5828
1287405625537,35.5960
1287405685537,35.6313
1287405745537,35.4862
1287405805537,35.5568
1287405865537,35.3826
1287405925537,35.5665
1287405985537,35.5339
1287406045537,35.4652
1287406105537,35.5132
1287406165537,35.5795
1287406225537,35.5246
1287406285537,35.5095
1287406345537,35.5295
1287406405537,35.4127
1287406465537,35.4950
1287406525537,35.4946
1287406585537,35.4578
1287406645537,35.4439
1287406705537,35.4814
1287406765537,35.3778
1287406825549,35.5499
1287406885549,35.4658
1287406945549,35.4312
1287407005549,35.5720
1287407065549,35.4773
1287407125549,35.4836
1287407185549,35.4898
1287407245549,35.5423
1287407305549,35.5072
1287407365549,35.5533
1287407425549,35.5141
1287407485549,35.5476
1287407545549,35.5892
1287407605549,35.4258
1287407665549,35.4818
1287407725549,35.4436
1287407785549,35.5374
1287407845549,35.4304
1287407905549,35.5080
1287407965549,35.5237
1287408025549,35.5377
1287408085549,35.5034
1287408145549,35.4694
1287408205549,35.4992
1287408265549,35.6217
1287408325549,35.6458
1287408385549,35.6655
1287408445549,35.6423
1287408505549,35.6289
1287408565549,35.7378
1287408625549,35.6754
1287408685549,35.6755
1287408745549,35.7592
1287408805549,35.5829
1287408865549,35.6437
1287408925549,35.7037
1287408985549,35.6152
1287409045549,35.5988
1287409105549,35.5762
1287409165549,35.6143
1287409225549,35.6382
1287409285549,35.5380
1287409345549,35.7174
1287409405549,35.5146
1287409465549,35.6622
1287409525549,35.6377
1287409585549,35.6999
1287409645549,35.6550
1287409705549,35.6095
1287409765549,35.6948
1287409825549,35.6194
1287409885549,35.6703
1287409945549,35.4620
1287410005549,35.5878
1287410065549,35.5522
1287410125549,35.6230
1287410185549,35.6615
1287410245549,35.7071
1287410305549,35.5732
1287410365549,35.5357
1287410425561,35.6220
1287410485561,35.7632
1287410545561,35.7602
1287410605561,35.6914
1287410665561,35.7479
1287410725561,35.7892
1287410785561,35.7696
1287410845561,35.6625
1287410905561,35.6444
1287410965561,35.7001
1287411025561,35.6633
1287411085561,35.5685
1287411145561,35.6419
1287411205561,35.6239
1287411265561,35.6851
1287411325561,35.5944
1287411385561,35.6170
1287411445561,35.6217
1287411505561,35.5380
1287411565561,35.8479
1287411625561,35.5717
1287411685561,35.5835
1287411745561,35.5991
1287411805561,35.6624
1287411865561,35.7649
1287411925561,35.6284
1287411985561,35.6521
1287412045561,35.6435
1287412105561,35.5690
1287412165561,35.6323
1287412225561,35.6203
1287412285561,35.6260
1287412345561,35.5607
1287412405561,35.5543
1287412465561,35.6938
1287412525561,35.6832
1287412585561,35.6189
1287412645561,35.5815
1287412705561,35.6592
1287412765561,35.7129
1287412825561,35.5681
1287412885561,35.6304
1287412945561,35.6100
1287413005561,35.6761
1287413065561,35.6225
1287413125561,35.7254
1287413185561,35.6823
1287413245561,35.7438
1287413305561,35.5317
1287413365561,35.6285
1287413425561,35.7030
1287413485561,35.6671
1287413545561,35.7123
1287413605561,35.6563
1287413665561,35.6938
1287413725561,35.6595
1287413785561,35.7818
1287413845561,35.6232
1287413905561,35.8271
1287413965561,35.7239
1287414025573,35.6420
1287414085573,35.6551
1287414145573,35.7587
1287414205573,35.7042
1287414265573,35.6947
1287414325573,35.7755
1287414385573,35.7588
1287414445573,35.8309
1287414505573,35.7409
1287414565573,35.7185
1287414625573,35.7808
1287414685573,35.6500
1287414745573,35.7053
1287414805573,35.7198
1287414865573,35.6256
1287414925573,35.7034
1287414985573,35.6435
1287415045573,35.7403
1287415105573,35.7155
1287415165573,35.7098
1287415225573,35.6852
1287415285573,35.6463
1287415345573,35.7093
1287415405573,35.7407
1287415465573,35.6129
1287415525573,35.7043
1287415585573,35.8232
1287415645573,35.7919
1287415705573,35.7166
1287415765573,35.7649
1287415825573,35.7359
1287415885573,35.7585
1287415945573,35.7086
1287416005573,35.7848
1287416065573,35.7738
1287416125573,35.8609
1287416185573,35.7028
1287416245573,35.6694
1287416305573,35.7185
1287416365573,35.8489
1287416425573,35.6945
1287416485573,35.7866
1287416545573,35.6561
1287416605573,35.7604
1287416665573,35.7333
1287416725573,35.7610
1287416785573,35.7489
1287416845573,35.6557
1287416905573,35.6670
1287416965573,35.7034
1287417025573,35.7559
1287417085573,35.7216
1287417145573,35.7385
1287417205573,35.8120
1287417265573,35.7395
1287417325573,35.7404
1287417385573,35.7792
1287417445573,35.7841
1287417505573,35.7802
1287417565573,35.9350
1287417625586,35.8521
1287417685586,35.8481
1287417745586,35.7663
1287417805586,35.8967
1287417865586,35.8896
1287417925586,35.8280
1287417985586,35.7685
1287418045586,35.8526
1287418105586,35.6810
1287418165586,35.7831
1287418225586,35.7906
1287418285586,35.7253
1287418345586,35.8093
1287418405586,35.8890
1287418465586,35.7143
1287418525586,35.7398
1287418585586,35.7669
1287418645586,35.6288
1287418705586,35.7506
1287418765586,35.7687
1287418825586,35.7735
1287418885586,35.7508
1287418945586,35.6757
1287419005586,35.6885
1287419065586,35.7040
1287419125586,35.7043
1287419185586,35.6523
1287419245586,35.6882
1287419305586,35.8276
1287419365586,35.6821
1287419425586,35.6762
1287419485586,35.8190
1287419545586,35.7625
1287419605586,35.7352
1287419665586,35.7033
1287419725586,35.6693
1287419785586,35.6824
1287419845586,35.6247
1287419905586,35.7786
1287419965586,35.6545
1287420025586,35.5503
1287420085586,35.6927
1287420145586,35.6713
1287420205586,35.7414
1287420265586,35.6303
1287420325586,35.7026
1287420385586,35.6625
1287420445586,35.6628
1287420505586,35.6290
1287420565586,35.7276
1287420625586,35.6863
1287420685586,35.8819
1287420745586,35.7281
1287420805586,35.6336
1287420865586,35.6561
1287420925586,35.7889
1287420985586,35.6893
1287421045586,35.6815
1287421105586,35.6981
1287421165586,35.7621
1287421225598,35.7434
1287421285598,35.7501
1287421345598,35.7288
1287421405598,35.8015
1287421465598,35.9505
1287421525598,35.9275
1287421585598,36.0008
1287421645598,36.0635
1287421705598,36.0450
1287421765598,36.0784
1287421825598,36.3008
1287421885598,36.1449
1287421945598,36.2117
1287422005598,36.3500
1287422065598,36.4592
1287422125598,36.2944
1287422185598,36.2871
1287422245598,36.2813
1287422305598,36.3338
1287422365598,36.3261
1287422425598,36.2631
1287422485598,36.3238
1287422545598,36.4056
1287422605598,36.3126
1287422665598,36.3152
1287422725598,36.2786
1287422785598,36.3095
1287422845598,36.1926
1287422905598,36.1486
1287422965598,36.1664
1287423025598,36.0400
1287423085598,36.0108
1287423145598,36.0583
1287423205598,36.1416
1287423265598,36.0320
1287423325598,36.2225
1287423385598,36.0144
1287423445598,36.1101
1287423505598,36.2056
1287423565598,36.0940
1287423625598,36.0703
1287423685598,36.0393
1287423745598,36.1284
1287423805598,36.0414
1287423865598,35.9205
1287423925598,36.0612
1287423985598,36.1552
1287424045598,36.1649
1287424105598,35.9899
1287424165598,36.0041
1287424225598,35.9644
1287424285598,35.9867
1287424345598,35.9000
1287424405598,36.0218
1287424465598,36.0318
1287424525598,35.8723
1287424585598,35.9013
1287424645598,36.0514
1287424705598,36.0024
1287424765598,35.8722
1287424825610,36.1107
1287424885610,35.8436
1287424945610,36.0692
1287425005610,35.8951
1287425065610,35.9753
1287425125610,35.9720
1287425185610,36.0594
1287425245610,36.0425
1287425305610,35.9305
1287425365610,35.9813
1287425425610,36.0616
1287425485610,35.8997
1287425545610,36.0378
1287425605610,35.9874
1287425665610,36.0121
1287425725610,35.9798
1287425785610,35.9792
1287425845610,36.0788
1287425905610,36.0071